Location: Appeville
(49.3218°N, 1.3427°W)
Time: 14:13:24
(UTC+00:00)

Cosmos 1513 Rocket - Pass Details

Date: 08 December 2019
Orbit: 938 x 1009 km, 82.9° (Epoch: 25 January)

Event Time Altitude Azimuth Distance (km) Brightness Sun altitude
Rises 04:56:48 0° 195° (SSW) 3,725 7.4 -26.7°
Reaches altitude 10° 04:59:20 10° 198° (SSW) 2,781 6.7 -26.2°
Maximum altitude 05:05:44 69° 281° (WNW) 1,077 4.4 -25.2°
Drops below altitude 10° 05:12:09 10° 6° (N) 2,789 6.9 -24.2°
Sets 05:14:42 0° 9° (N) 3,736 7.6 -23.8°
